Regional Weather Roundup
Issued by NWS

Home | Current Version | Previous Version | Graphics & Text | Print | Product List | Glossary On
Versions: 1 2 3 4 5 6 7 8 9 10 11 12 13 14 15 16 17 18 19 20 21 22 23 24 25 26 27 28 29 30 31 32 33 34 35 36 37 38 39 40 41 42 43 44 45 46 47 48 49 50
525
ASUS43 KLSX 211110
RWRMO

WEATHER SUMMARY FOR MISSOURI
NATIONAL WEATHER SERVICE SPRINGFIELD MO
600 AM CDT MON MAY 21 2018

NOTE: "FAIR" INDICATES FEW OR NO CLOUDS BELOW 12,000 FEET WITH NO
       SIGNIFICANT WEATHER AND/OR OBSTRUCTIONS TO VISIBILITY.
       CURRENT SKY AND/OR WEATHER CONDITIONS ARE NOT AVAILABLE FOR
       CHILLICOTHE AND FARMINGTON.

MOZ001>031-035>038-043-044-053-054-211200-
...NORTHERN AND WESTERN MISSOURI...

CITY           SKY/WX    TMP DP  RH WIND       PRES   REMARKS
KANSAS CTY INT FOG       59  59 100 W3        30.04R VSB 1/2
KANSAS C DTWN  CLOUDY    62  59  90 W6        30.03R FOG
LEE`S SUMMIT   CLOUDY    62  62 100 W6        30.04R FOG
ST JOSEPH      CLOUDY    59  59 100 W3        30.02S FOG
CHILLICOTHE      N/A     65  64  97 CALM      30.01R
KIRKSVILLE     CLOUDY    64  64 100 S8        30.01S

$$
MOZ066>068-077>081-088>096-101>105-211200-
...SOUTHWEST MISSOURI...

CITY           SKY/WX    TMP DP  RH WIND       PRES   REMARKS
SPRINGFIELD    CLOUDY    67  65  93 S6        30.04R FOG
JOPLIN         CLOUDY    63  62  97 NW3       30.06R FOG

$$
MOZ032>034-039>042-045>050-055>058-069>072-211200-
...CENTRAL MISSOURI...

CITY           SKY/WX    TMP DP  RH WIND       PRES   REMARKS
COLUMBIA       CLOUDY    65  63  93 S8        30.03S
JEFFERSON CITY CLOUDY    66  64  93 CALM      30.03S
ROLLA          CLOUDY    63  62  97 S7        30.05S
SEDALIA        CLOUDY    66  66 100 SW6       30.03S FOG
WHITEMAN AFB   MOCLDY    65  65  99 SW3       29.99R
WARRENSBURG    CLOUDY    63  61  94 CALM      30.03R FOG
OSAGE BEACH    CLOUDY    65  64  97 CALM      30.05R

$$
MOZ051-052-059>065-211200-
...EAST CENTRAL MISSOURI...

CITY           SKY/WX    TMP DP  RH WIND       PRES   REMARKS
ST LOUIS INTL  CLOUDY    65  65 100 S3        30.05S
SPIRIT OF STL  CLOUDY    65  64  97 CALM      30.03S
ST CHARLES     CLOUDY    66  65  96 SE3       30.04R

$$
MOZ072>076-082>087-097>100-106>115-211200-
...SOUTH CENTRAL AND SOUTHEAST MISSOURI...

CITY           SKY/WX    TMP DP  RH WIND       PRES   REMARKS
CAPE GIRARDEAU FAIR      68  65  90 SE9       30.06F
FARMINGTON     MOCLDY    64  64 100 S5        30.06S
POPLAR BLUFF   LGT RAIN  68  68 100 S13       30.05S
WEST PLAINS    CLOUDY    66  64  93 SE3       30.08R

$$




USA.gov is the U.S. government's official web portal to all federal, state and local government web resources and services.